| time (UTC) | temp C | wind direction | speed KPH | gust KPH | rain 1hr cm | rain 24hr cm | rain mn cm | humidity % | barometer mb |
| 20260508084458 | 5 | 318 | 0.0 | 1.6 | 0.00 | 0.03 | 0.03 | 84 | 1011.8 |
| 20260508082958 | 5 | 318 | 0.0 | 0.0 | 0.00 | 0.03 | 0.03 | 85 | 1011.6 |
| 20260508081459 | 5 | 318 | 1.6 | 6.4 | 0.00 | 0.03 | 0.03 | 85 | 1011.4 |
| 20260508075957 | 6 | 274 | 1.6 | 6.4 | 0.00 | 0.03 | 0.03 | 85 | 1011.2 |
| 20260508072957 | 6 | 91 | 3.2 | 9.7 | 0.03 | 0.03 | 0.03 | 84 | 1010.6 |
| 20260508071458 | 7 | 89 | 4.8 | 11.3 | 0.03 | 0.03 | 0.03 | 84 | 1010.7 |
| 20260508070000 | 7 | 327 | 6.4 | 14.5 | 0.03 | 0.03 | 0.03 | 82 | 1011.3 |
| 20260508064458 | 8 | 161 | 6.4 | 16.1 | 0.00 | 0.13 | 0.00 | 79 | 1011.2 |
| 20260508062958 | 8 | 312 | 3.2 | 12.9 | 0.00 | 0.13 | 0.00 | 77 | 1010.9 |
| 20260508061458 | 8 | 172 | 4.8 | 11.3 | 0.00 | 0.13 | 0.00 | 77 | 1010.2 |
| 20260508055958 | 8 | 255 | 3.2 | 9.7 | 0.00 | 0.20 | 0.00 | 75 | 1010.2 |
| 20260508054457 | 8 | 81 | 4.8 | 12.9 | 0.00 | 0.20 | 0.00 | 74 | 1010.0 |
| 20260508052957 | 9 | 94 | 3.2 | 9.7 | 0.00 | 0.20 | 0.00 | 71 | 1010.1 |
| 20260508051458 | 9 | 122 | 3.2 | 11.3 | 0.00 | 0.20 | 0.00 | 70 | 1010.4 |
| 20260508050002 | 10 | 288 | 6.4 | 16.1 | 0.00 | 0.20 | 0.00 | 65 | 1010.4 |
| 20260508043000 | 10 | 82 | 0.0 | 1.6 | 0.00 | 0.20 | 0.00 | 63 | 1009.3 |
| 20260508041500 | 10 | 82 | 3.2 | 6.4 | 0.00 | 0.20 | 0.00 | 64 | 1008.9 |
| 20260508040006 | 11 | 82 | 0.0 | 1.6 | 0.00 | 0.20 | 0.00 | 58 | 1009.0 |
| 20260508034502 | 11 | 82 | 0.0 | 0.0 | 0.00 | 0.20 | 0.20 | 59 | 1008.8 |
| 20260508033001 | 12 | 82 | 0.0 | 1.6 | 0.00 | 0.20 | 0.20 | 53 | 1008.7 |
| 20260508031502 | 12 | 82 | 1.6 | 9.7 | 0.00 | 0.20 | 0.20 | 49 | 1008.7 |
| 20260508023000 | 12 | 83 | 4.8 | 9.7 | 0.00 | 0.20 | 0.20 | 50 | 1008.8 |
| 20260508021500 | 12 | 72 | 1.6 | 6.4 | 0.00 | 0.20 | 0.20 | 51 | 1009.0 |
| 20260508020000 | 12 | 72 | 1.6 | 4.8 | 0.00 | 0.20 | 0.20 | 50 | 1008.8 |
| 20260508014500 | 12 | 71 | 1.6 | 4.8 | 0.00 | 0.20 | 0.20 | 50 | 1008.7 |
| 20260508013001 | 12 | 71 | 0.0 | 6.4 | 0.00 | 0.20 | 0.20 | 49 | 1008.6 |
| 20260508011500 | 12 | 105 | 0.0 | 4.8 | 0.00 | 0.20 | 0.20 | 51 | 1008.5 |
| 20260508010000 | 11 | 105 | 0.0 | 4.8 | 0.00 | 0.81 | 0.20 | 54 | 1008.5 |
| 20260508004501 | 11 | 105 | 0.0 | 0.0 | 0.00 | 0.81 | 0.20 | 57 | 1008.3 |
| 20260508003001 | 11 | 105 | 0.0 | 4.8 | 0.00 | 0.81 | 0.20 | 55 | 1008.1 |
| 20260508001501 | 12 | 105 | 0.0 | 1.6 | 0.00 | 0.81 | 0.20 | 55 | 1008.0 |
| 20260508000001 | 12 | 105 | 0.0 | 3.2 | 0.00 | 0.81 | 0.20 | 53 | 1007.8 |
| 20260507234500 | 13 | 39 | 0.0 | 1.6 | 0.00 | 0.81 | 0.20 | 54 | 1007.7 |
| 20260507233001 | 14 | 169 | 0.0 | 1.6 | 0.00 | 0.81 | 0.20 | 51 | 1007.6 |
| 20260507231501 | 14 | 169 | 0.0 | 3.2 | 0.00 | 0.81 | 0.20 | 48 | 1007.7 |
| 20260507224501 | 15 | 122 | 1.6 | 4.8 | 0.00 | 0.81 | 0.20 | 46 | 1007.4 |
| 20260507221501 | 15 | 342 | 3.2 | 11.3 | 0.00 | 0.81 | 0.20 | 41 | 1007.5 |
| 20260507220003 | 15 | 136 | 1.6 | 3.2 | 0.00 | 0.81 | 0.20 | 42 | 1007.6 |
| 20260507214500 | 16 | 295 | 4.8 | 14.5 | 0.00 | 0.81 | 0.20 | 40 | 1007.5 |
| 20260507213000 | 16 | 271 | 4.8 | 12.9 | 0.00 | 0.81 | 0.20 | 42 | 1007.6 |
| 20260507211500 | 15 | 309 | 3.2 | 6.4 | 0.00 | 0.81 | 0.20 | 42 | 1007.5 |
| 20260507210000 | 16 | 253 | 6.4 | 16.1 | 0.00 | 0.81 | 0.20 | 38 | 1007.5 |
| 20260507204500 | 16 | 301 | 3.2 | 17.7 | 0.00 | 0.81 | 0.20 | 41 | 1007.3 |
| 20260507203000 | 16 | 295 | 4.8 | 12.9 | 0.00 | 0.81 | 0.20 | 40 | 1007.4 |
| 20260507201500 | 16 | 298 | 4.8 | 12.9 | 0.00 | 0.81 | 0.20 | 44 | 1007.5 |
| 20260507200000 | 16 | 268 | 3.2 | 9.7 | 0.00 | 0.81 | 0.20 | 41 | 1007.5 |
| 20260507193000 | 15 | 86 | 4.8 | 14.5 | 0.00 | 0.81 | 0.20 | 42 | 1007.9 |
| 20260507191459 | 15 | 275 | 3.2 | 9.7 | 0.00 | 0.81 | 0.20 | 44 | 1007.9 |
| 20260507190003 | 15 | 255 | 4.8 | 12.9 | 0.00 | 0.81 | 0.20 | 41 | 1008.1 |
| 20260507183000 | 15 | 45 | 6.4 | 17.7 | 0.00 | 0.86 | 0.20 | 39 | 1008.4 |
| 20260507181501 | 15 | 181 | 4.8 | 9.7 | 0.00 | 0.86 | 0.20 | 42 | 1008.4 |
| 20260507180002 | 15 | 122 | 4.8 | 14.5 | 0.00 | 0.86 | 0.20 | 43 | 1008.7 |
| 20260507174500 | 15 | 1 | 4.8 | 14.5 | 0.00 | 0.91 | 0.20 | 44 | 1008.9 |
| 20260507173000 | 14 | 276 | 8.0 | 17.7 | 0.00 | 0.91 | 0.20 | 44 | 1009.1 |
| 20260507171500 | 14 | 276 | 6.4 | 22.5 | 0.00 | 0.91 | 0.20 | 43 | 1009.4 |
| 20260507170002 | 13 | 93 | 4.8 | 12.9 | 0.00 | 0.91 | 0.20 | 44 | 1009.7 |
| 20260507164500 | 13 | 275 | 4.8 | 14.5 | 0.00 | 1.04 | 0.20 | 51 | 1009.7 |
| 20260507163000 | 13 | 281 | 4.8 | 14.5 | 0.00 | 1.04 | 0.20 | 47 | 1010.1 |
| 20260507161501 | 13 | 79 | 3.2 | 9.7 | 0.00 | 1.04 | 0.20 | 48 | 1010.1 |
| 20260507160000 | 13 | 359 | 4.8 | 14.5 | 0.00 | 1.14 | 0.20 | 53 | 1010.4 |
| 20260507150002 | 11 | 308 | 6.4 | 16.1 | 0.00 | 1.14 | 0.20 | 58 | 1011.1 |
| 20260507143000 | 11 | 274 | 8.0 | 16.1 | 0.00 | 1.19 | 0.20 | 62 | 1011.4 |
| 20260507141501 | 11 | 272 | 4.8 | 14.5 | 0.00 | 1.19 | 0.20 | 64 | 1011.4 |
| 20260507140000 | 11 | 271 | 4.8 | 24.1 | 0.00 | 1.19 | 0.20 | 64 | 1011.3 |
| 20260507134501 | 10 | 148 | 4.8 | 17.7 | 0.00 | 1.19 | 0.20 | 63 | 1011.5 |
| 20260507132958 | 10 | 338 | 3.2 | 19.3 | 0.00 | 1.19 | 0.20 | 67 | 1011.5 |
| 20260507131459 | 10 | 271 | 6.4 | 17.7 | 0.00 | 1.19 | 0.20 | 70 | 1011.3 |
| 20260507125958 | 10 | 291 | 4.8 | 12.9 | 0.00 | 1.19 | 0.20 | 74 | 1011.3 |
| 20260507124458 | 9 | 347 | 6.4 | 16.1 | 0.00 | 1.19 | 0.20 | 75 | 1011.2 |
| 20260507121457 | 8 | 352 | 3.2 | 11.3 | 0.00 | 1.19 | 0.20 | 83 | 1011.1 |
| 20260507120001 | 8 | 297 | 3.2 | 9.7 | 0.00 | 1.19 | 0.20 | 85 | 1011.2 |
| 20260507114500 | 8 | 275 | 3.2 | 9.7 | 0.00 | 1.19 | 0.20 | 84 | 1011.1 |
| 20260507113000 | 8 | 246 | 1.6 | 4.8 | 0.00 | 1.19 | 0.20 | 83 | 1011.0 |
| 20260507105958 | 7 | 330 | 3.2 | 11.3 | 0.00 | 1.19 | 0.20 | 83 | 1010.5 |
| 20260507104458 | 7 | 267 | 3.2 | 12.9 | 0.00 | 1.19 | 0.20 | 80 | 1010.4 |
| 20260507102958 | 7 | 273 | 1.6 | 8.0 | 0.00 | 1.19 | 0.20 | 75 | 1010.1 |
| 20260507101459 | 7 | 326 | 1.6 | 6.4 | 0.00 | 1.19 | 0.20 | 70 | 1010.0 |
| 20260507100001 | 7 | 244 | 1.6 | 4.8 | 0.00 | 1.19 | 0.20 | 66 | 1009.6 |
| 20260507094459 | 7 | 308 | 1.6 | 6.4 | 0.00 | 1.19 | 0.20 | 63 | 1009.7 |
| 20260507092959 | 7 | 304 | 0.0 | 1.6 | 0.00 | 1.19 | 0.20 | 62 | 1009.4 |
| 20260507091500 | 7 | 295 | 0.0 | 3.2 | 0.00 | 1.19 | 0.20 | 62 | 1009.3 |
| 20260507085958 | 7 | 295 | 0.0 | 4.8 | 0.00 | 1.19 | 0.20 | 62 | 1009.4 |